Location: Newark
(40.7360°N, 74.1730°W)
Time: 07:29:16
(UTC-04:00)

ISS - All Passes

Search period start: 31 July 2014 00:00
Search period end: 10 August 2014 00:00
Orbit: 411 x 419 km, 51.6° (Epoch: 31 July)

Date Brightness Start Highest point End Pass type
(mag) Time Alt. Az. Time Alt. Az. Time Alt. Az.
31 Jul - 00:30:26 10° W 00:33:15 25° NNW 00:36:06 10° NE visible
31 Jul - 02:09:13 10° NNW 02:10:52 13° N 02:12:32 10° NNE visible
31 Jul - 03:46:10 10° NNW 03:48:37 18° NNE 03:51:03 10° ENE visible
31 Jul - 05:22:23 10° NW 05:25:45 79° NE 05:29:07 10° ESE visible
31 Jul - 07:00:48 10° WSW 07:02:01 12° SW 07:03:14 10° SSW daylight
31 Jul - 22:04:43 10° SSW 22:07:38 29° SE 22:10:34 10° ENE night (unlit)
31 Jul - 23:41:11 10° W 23:44:17 35° NNW 23:47:24 10° NE night (unlit)
01 Aug - 01:19:53 10° NW 01:21:45 14° N 01:23:38 10° NNE visible
01 Aug - 02:57:27 10° NNW 02:59:32 15° NNE 03:01:37 10° NE visible
01 Aug - 04:33:37 10° NW 04:36:53 46° NNE 04:40:08 10° ESE visible
01 Aug - 06:10:49 10° W 06:13:23 20° SW 06:15:56 10° S daylight
01 Aug - 21:16:47 10° S 21:18:57 17° SE 21:21:09 10° E visible
01 Aug - 22:52:05 10° WSW 22:55:22 56° NNW 22:58:40 10° NE visible
02 Aug - 00:30:27 10° NW 00:32:39 16° NNW 00:34:51 10° NNE visible
02 Aug - 02:08:38 10° NNW 02:10:25 14° N 02:12:12 10° NE visible
02 Aug - 03:44:54 10° NW 03:47:57 31° NNE 03:50:59 10° E visible
02 Aug - 05:21:34 10° WNW 05:24:41 36° SW 05:27:47 10° SSE visible
02 Aug - 22:03:11 10° SW 22:06:30 85° SE 22:09:51 10° NE visible
02 Aug - 23:41:01 10° WNW 23:43:34 20° NNW 23:46:08 10° NNE visible
03 Aug - 01:19:39 10° NNW 01:21:17 13° N 01:22:54 10° NNE visible
03 Aug - 02:56:12 10° NNW 02:58:56 22° NNE 03:01:40 10° ENE visible
03 Aug - 04:32:34 10° WNW 04:35:54 66° SW 04:39:14 10° SE visible
03 Aug - 21:14:30 10° SSW 21:17:42 46° SE 21:20:55 10° ENE visible
03 Aug - 22:51:39 10° W 22:54:32 26° NNW 22:57:26 10° NE visible
04 Aug - 00:30:27 10° NW 00:32:07 13° N 00:33:48 10° NNE visible
04 Aug - 02:07:30 10° NNW 02:09:52 18° NNE 02:12:14 10° ENE visible
04 Aug - 03:43:42 10° NW 03:47:03 71° NE 03:50:24 10° ESE visible
04 Aug - 05:21:44 10° W 05:23:22 13° SW 05:25:00 10° SSW visible
04 Aug - 20:26:08 10° SSW 20:28:57 26° SE 20:31:46 10° ENE daylight
04 Aug - 22:02:24 10° W 22:05:32 38° NNW 22:08:42 10° NE visible
04 Aug - 23:41:03 10° NW 23:42:58 14° N 23:44:54 10° NNE visible
05 Aug - 01:18:45 10° NNW 01:20:45 15° N 01:22:46 10° NE visible
05 Aug - 02:54:55 10° NW 02:58:08 42° NNE 03:01:21 10° ESE night (unlit)
05 Aug - 04:31:59 10° W 04:34:41 23° SW 04:37:23 10° S visible
05 Aug - 19:38:19 10° SSE 19:40:15 15° SE 19:42:11 10° E daylight
05 Aug - 21:13:19 10° WSW 21:16:36 62° NW 21:19:55 10° NE visible
05 Aug - 22:51:35 10° WNW 22:53:50 17° NNW 22:56:06 10° NNE visible
06 Aug - 00:29:53 10° NNW 00:31:36 13° N 00:33:19 10° NE visible
06 Aug - 02:06:10 10° NW 02:09:09 28° NNE 02:12:07 10° E night (unlit)
06 Aug - 03:42:46 10° WNW 03:45:56 40° SW 03:49:06 10° SSE night (unlit)
06 Aug - 20:24:25 10° SW 20:27:43 75° SE 20:31:03 10° ENE daylight
06 Aug - 22:02:07 10° WNW 22:04:44 21° NNW 22:07:22 10° NNE visible
06 Aug - 23:40:49 10° NNW 23:42:25 13° N 23:44:01 10° NNE visible
07 Aug - 01:17:27 10° NNW 01:20:06 21° NNE 01:22:45 10° ENE visible
07 Aug - 02:53:46 10° WNW 02:57:07 74° SW 03:00:27 10° SE night (unlit)
07 Aug - 19:35:46 10° SSW 19:38:54 40° SE 19:42:03 10° ENE daylight
07 Aug - 21:12:45 10° W 21:15:41 28° NNW 21:18:38 10° NE visible
07 Aug - 22:51:32 10° NW 22:53:14 13° N 22:54:56 10° NNE visible
08 Aug - 00:28:42 10° NNW 00:30:59 17° NNE 00:33:16 10° ENE visible
08 Aug - 02:04:53 10° NW 02:08:13 63° NE 02:11:33 10° ESE night (unlit)
08 Aug - 03:42:38 10° W 03:44:35 15° SW 03:46:31 10° SSW night (unlit)
08 Aug - 18:47:27 10° S 18:50:07 23° SE 18:52:49 10° E daylight
08 Aug - 20:23:30 10° WSW 20:26:40 41° NNW 20:29:52 10° NE daylight
08 Aug - 22:02:05 10° NW 22:04:04 15° N 22:06:02 10° NNE visible
08 Aug - 23:39:54 10° NNW 23:41:50 14° N 23:43:46 10° NE visible
09 Aug - 01:16:05 10° NW 01:19:15 39° NNE 01:22:25 10° E visible
09 Aug - 02:53:01 10° WNW 02:55:51 25° SW 02:58:40 10° SSE night (unlit)
09 Aug - 17:59:48 10° SSE 18:01:24 13° SE 18:03:01 10° E daylight
09 Aug - 19:34:25 10° WSW 19:37:43 69° NW 19:41:02 10° NE daylight
09 Aug - 21:12:35 10° WNW 21:14:54 17° NNW 21:17:14 10° NNE visible
09 Aug - 22:50:59 10° NNW 22:52:39 13° N 22:54:19 10° NE visible
